QPF
0.00 0.00 0.00 0.00 0.00 0.00 0.00 0.00 0.00 0.00 0.00 0.00 0.01 0.00 0.00 0.04 0.01 0.01 0.00 0.02 0.06 0.05 0.03 0.01 0.00 0.00 0.00 0.00 0.01 0.05 0.01 0.00 0.00 0.01 0.02 0.05 0.10 0.17 0.21 0.20 0.11 0.10 0.07
0.00 0.00 0.00 0.00 0.00 0.00 0.00 0.00 0.00 0.00 0.00 0.00 0.00 0.00 0.00 0.02 0.01 0.06 0.02 0.02 0.05 0.04 0.00 0.00 0.00 0.00 0.00 0.00 0.00 0.05 0.04 0.00 0.00 0.00 0.02 0.04 0.12 0.24 0.15 0.20 0.17 0.16 0.19
0.00 0.00 0.00 0.00 0.00 0.00 0.00 0.00 0.00 0.00 0.00 0.00 0.00 0.03 0.02 0.00 0.00 0.01 0.03 0.02 0.07 0.02 0.00 0.00 0.00 0.00 0.00 0.00 0.01 0.01 0.01 0.04 0.02 0.00 0.00 0.01 0.05 0.11 0.14 0.19 0.23 0.25 0.25
0.01 0.00 0.00 0.00 0.00 0.00 0.00 0.00 0.00 0.00 0.00 0.00 0.00 0.00 0.00 0.00 0.00 0.03 0.10 0.06 0.07 0.01 0.00 0.00 0.00 0.00 0.00 0.02 0.06 0.10 0.07 0.00 0.00 0.00 0.00 0.00 0.01 0.04 0.15 0.05 0.07 0.17 0.26
0.00 0.00 0.00 0.00 0.00 0.00 0.00 0.00 0.00 0.00 0.00 0.00 0.00 0.00 0.00 0.00 0.00 0.01 0.10 0.10 0.01 0.01 0.00 0.00 0.00 0.00 0.00 0.00 0.01 0.01 0.02 0.00 0.00 0.00 0.00 0.00 0.00 0.03 0.04 0.02 0.03 0.09 0.23
0.00 0.00 0.00 0.00 0.00 0.00 0.00 0.00 0.00 0.00 0.00 0.00 0.00 0.00 0.00 0.00 0.00 0.00 0.06 0.08 0.04 0.02 0.00 0.00 0.00 0.00 0.00 0.00 0.00 0.00 0.00 0.00 0.00 0.00 0.00 0.00 0.00 0.00 0.03 0.07 0.07 0.01 0.10
0.00 0.00 0.00 0.00 0.00 0.00 0.00 0.00 0.00 0.00 0.00 0.00 0.00 0.00 0.00 0.00 0.00 0.00 0.02 0.04 0.09 0.06 0.04 0.04 0.04 0.00 0.00 0.00 0.00 0.00 0.00 0.00 0.00 0.00 0.00 0.00 0.00 0.00 0.01 0.06 0.11 0.02 0.04
0.00 0.00 0.00 0.00 0.00 0.00 0.00 0.00 0.00 0.00 0.00 0.00 0.00 0.00 0.00 0.00 0.00 0.00 0.01 0.01 0.02 0.08 0.05 0.06 0.03 0.02 0.00 0.03 0.03 0.02 0.02 0.04 0.00 0.00 0.00 0.00 0.00 0.00 0.00 0.01 0.10 0.11 0.02
0.00 0.00 0.00 0.00 0.00 0.01 0.01 0.02 0.01 0.01 0.00 0.00 0.00 0.00 0.00 0.00 0.00 0.00 0.00 0.00 0.03 0.07 0.07 0.08 0.05 0.07 0.01 0.03 0.14 0.16 0.13 0.09 0.06 0.02 0.00 0.00 0.00 0.00 0.00 0.00 0.01 0.11 0.10
0.00 0.00 0.00 0.00 0.01 0.02 0.05 0.04 0.02 0.01 0.00 0.00 0.00 0.00 0.00 0.00 0.00 0.00 0.00 0.00 0.00 0.02 0.04 0.05 0.04 0.04 0.05 0.04 0.04 0.15 0.13 0.19 0.11 0.04 0.00 0.00 0.00 0.00 0.00 0.00 0.00 0.03 0.10
0.00 0.00 0.00 0.00 0.00 0.01 0.03 0.02 0.03 0.03 0.01 0.02 0.01 0.02 0.00 0.00 0.00 0.00 0.00 0.00 0.00 0.03 0.04 0.01 0.01 0.02 0.02 0.00 0.01 0.01 0.04 0.08 0.03 0.01 0.00 0.00 0.00 0.00 0.00 0.00 0.00 0.01 0.05
0.00 0.00 0.00 0.00 0.00 0.00 0.02 0.05 0.03 0.04 0.04 0.05 0.05 0.05 0.07 0.05 0.02 0.01 0.01 0.01 0.00 0.00 0.01 0.00 0.00 0.00 0.00 0.00 0.03 0.01 0.04 0.01 0.00 0.00 0.00 0.00 0.00 0.00 0.00 0.00 0.00 0.00 0.05
0.01 0.00 0.01 0.00 0.00 0.00 0.04 0.09 0.04 0.05 0.03 0.04 0.08 0.14 0.16 0.08 0.04 0.02 0.02 0.02 0.00 0.00 0.00 0.01 0.00 0.00 0.00 0.01 0.09 0.09 0.04 0.00 0.00 0.00 0.00 0.00 0.00 0.00 0.00 0.00 0.00 0.00 0.03
0.00 0.00 0.00 0.00 0.01 0.04 0.07 0.06 0.02 0.04 0.02 0.02 0.08 0.15 0.17 0.06 0.05 0.03 0.03 0.01 0.00 0.00 0.01 0.01 0.00 0.00 0.00 0.00 0.02 0.04 0.04 0.00 0.00 0.00 0.00 0.00 0.00 0.00 0.00 0.00 0.00 0.00 0.01
0.00 0.00 0.00 0.00 0.00 0.01 0.02 0.01 0.00 0.00 0.00 0.03 0.12 0.10 0.14 0.08 0.03 0.02 0.02 0.03 0.02 0.00 0.01 0.00 0.00 0.00 0.00 0.01 0.01 0.11 0.09 0.01 0.00 0.00 0.00 0.00 0.00 0.00 0.00 0.00 0.00 0.00 0.00
0.00 0.00 0.00 0.00 0.00 0.00 0.00 0.00 0.00 0.00 0.02 0.10 0.12 0.10 0.11 0.08 0.05 0.02 0.01 0.06 0.06 0.01 0.01 0.00 0.00 0.00 0.01 0.01 0.04 0.07 0.02 0.04 0.01 0.00 0.00 0.00 0.00 0.00 0.00 0.00 0.00 0.00 0.00
0.00 0.00 0.00 0.00 0.00 0.00 0.00 0.00 0.00 0.11 0.08 0.09 0.13 0.12 0.17 0.12 0.07 0.03 0.04 0.11 0.10 0.01 0.00 0.00 0.00 0.00 0.00 0.00 0.01 0.02 0.00 0.02 0.01 0.00 0.00 0.00 0.00 0.00 0.00 0.00 0.00 0.00 0.00
0.00 0.00 0.00 0.00 0.00 0.00 0.00 0.00 0.00 0.16 0.08 0.02 0.02 0.06 0.17 0.13 0.07 0.08 0.10 0.09 0.06 0.00 0.00 0.00 0.00 0.00 0.00 0.00 0.00 0.00 0.00 0.00 0.00 0.00 0.00 0.00 0.00 0.00 0.00 0.00 0.00 0.00 0.00
0.00 0.00 0.00 0.00 0.00 0.00 0.01 0.02 0.00 0.01 0.00 0.00 0.00 0.01 0.05 0.09 0.06 0.05 0.07 0.07 0.02 0.00 0.00 0.00 0.00 0.00 0.00 0.00 0.00 0.00 0.00 0.00 0.00 0.00 0.00 0.00 0.00 0.00 0.00 0.00 0.00 0.00 0.00
0.01 0.03 0.00 0.00 0.00 0.00 0.00 0.00 0.00 0.00 0.00 0.00 0.00 0.00 0.02 0.06 0.05 0.04 0.05 0.08 0.01 0.00 0.00 0.00 0.00 0.00 0.00 0.00 0.00 0.00 0.00 0.00 0.00 0.00 0.00 0.00 0.00 0.00 0.00 0.00 0.00 0.00 0.00
0.07 0.04 0.02 0.01 0.00 0.00 0.00 0.00 0.00 0.00 0.00 0.00 0.00 0.00 0.00 0.02 0.02 0.04 0.03 0.05 0.00 0.00 0.00 0.00 0.00 0.00 0.00 0.00 0.00 0.00 0.00 0.00 0.00 0.00 0.00 0.00 0.00 0.00 0.00 0.00 0.00 0.00 0.00
0.04 0.02 0.01 0.00 0.00 0.00 0.00 0.00 0.00 0.00 0.00 0.00 0.00 0.00 0.00 0.00 0.00 0.03 0.01 0.02 0.02 0.00 0.00 0.00 0.00 0.00 0.00 0.00 0.00 0.00 0.00 0.00 0.00 0.00 0.00 0.00 0.00 0.00 0.00 0.00 0.00 0.00 0.00
0.00 0.00 0.00 0.00 0.00 0.00 0.00 0.05 0.03 0.01 0.00 0.00 0.00 0.00 0.00 0.00 0.00 0.00 0.00 0.01 0.01 0.00 0.00 0.00 0.00 0.00 0.00 0.00 0.00 0.00 0.00 0.00 0.00 0.00 0.00 0.00 0.00 0.00 0.00 0.00 0.00 0.00 0.00
0.00 0.00 0.00 0.00 0.00 0.00 0.02 0.01 0.00 0.00 0.00 0.00 0.00 0.00 0.00 0.00 0.00 0.00 0.00 0.00 0.00 0.00 0.00 0.00 0.00 0.00 0.00 0.00 0.00 0.00 0.00 0.00 0.00 0.00 0.00 0.00 0.00 0.00 0.00 0.00 0.00 0.00 0.00
0.00 0.00 0.00 0.00 0.00 0.00 0.02 0.04 0.01 0.00 0.00 0.00 0.00 0.00 0.00 0.00 0.00 0.00 0.00 0.00 0.00 0.00 0.00 0.00 0.00 0.00 0.00 0.00 0.00 0.00 0.00 0.00 0.00 0.00 0.00 0.00 0.00 0.00 0.00 0.00 0.00 0.00 0.00
0.00 0.00 0.00 0.00 0.00 0.00 0.01 0.02 0.00 0.00 0.00 0.00 0.00 0.00 0.00 0.00 0.00 0.00 0.00 0.00 0.00 0.00 0.00 0.00 0.00 0.00 0.00 0.00 0.00 0.00 0.00 0.00 0.00 0.00 0.00 0.00 0.00 0.00 0.00 0.00 0.00 0.00 0.00
MSLP
1015.70 1015.56 1015.31 1015.24 1015.08 1014.97 1015.02 1014.91 1014.92 1015.00 1015.02 1014.83 1014.73 1014.81 1014.80 1014.89 1014.86 1015.32 1015.59 1015.69 1015.63 1015.96 1015.95 1016.23 1016.54 1016.53 1016.77 1016.70 1016.82 1016.43 1016.42 1016.70 1017.22 1017.64 1017.72 1017.82 1018.43 1018.86 1019.36 1019.45 1019.72 1020.04 1020.65
1015.43 1015.41 1015.29 1015.18 1014.99 1014.91 1014.79 1014.73 1014.79 1014.86 1014.72 1014.60 1014.81 1014.71 1014.53 1014.53 1014.45 1014.79 1015.01 1015.10 1015.10 1015.28 1015.87 1015.88 1016.24 1016.59 1016.70 1016.76 1016.72 1016.75 1016.74 1016.87 1016.95 1017.28 1017.62 1017.76 1017.94 1018.61 1019.10 1019.59 1019.58 1019.83 1020.60
1015.27 1015.31 1015.23 1015.17 1014.67 1014.59 1014.46 1014.44 1014.43 1014.32 1014.45 1014.79 1014.78 1014.60 1014.31 1014.05 1013.90 1014.07 1014.27 1014.81 1014.95 1015.06 1015.51 1015.81 1016.01 1016.33 1016.58 1016.73 1016.83 1016.48 1016.46 1016.87 1016.91 1017.14 1017.43 1017.61 1017.90 1018.52 1018.50 1019.80 1019.56 1019.89 1020.29
1015.01 1015.19 1015.05 1014.67 1014.34 1014.43 1014.60 1014.55 1014.52 1014.49 1014.57 1014.67 1014.69 1014.35 1013.98 1013.62 1013.57 1014.00 1014.30 1014.01 1014.80 1014.93 1015.41 1015.65 1016.00 1016.19 1016.41 1016.61 1016.63 1016.67 1016.62 1016.85 1017.37 1017.39 1017.48 1017.60 1017.69 1018.28 1019.05 1019.19 1019.29 1019.60 1020.72
1014.77 1014.92 1014.94 1014.67 1014.53 1014.68 1014.79 1014.71 1014.70 1014.63 1014.68 1014.69 1014.52 1014.38 1014.03 1013.74 1013.73 1013.91 1014.23 1014.32 1014.57 1015.24 1015.52 1015.72 1016.02 1016.24 1016.46 1016.53 1016.53 1016.87 1016.96 1017.20 1017.43 1017.64 1017.79 1017.83 1017.83 1017.72 1018.04 1018.54 1018.73 1019.25 1020.57
1014.61 1014.87 1014.95 1014.88 1014.92 1014.85 1014.80 1014.76 1014.68 1014.77 1014.79 1014.91 1014.71 1014.57 1014.33 1014.23 1014.24 1014.42 1014.78 1014.95 1015.00 1015.03 1015.49 1015.96 1015.98 1016.22 1016.32 1016.29 1016.72 1016.72 1017.11 1017.23 1017.53 1017.82 1018.05 1018.10 1018.03 1017.84 1017.86 1018.19 1018.81 1019.57 1020.25
1014.42 1014.78 1014.90 1015.00 1015.08 1014.91 1014.87 1014.70 1014.76 1014.92 1014.91 1014.88 1014.73 1014.63 1014.76 1014.81 1014.87 1014.92 1014.97 1015.17 1015.39 1015.30 1015.74 1016.07 1016.14 1016.30 1016.43 1016.71 1016.72 1017.00 1017.21 1017.56 1017.82 1018.06 1018.41 1018.44 1018.41 1018.19 1018.09 1018.16 1018.53 1019.24 1019.70
1014.32 1014.56 1014.80 1014.85 1014.84 1014.91 1014.69 1014.65 1014.85 1015.15 1015.10 1015.00 1015.22 1015.39 1015.21 1015.09 1014.89 1015.19 1015.08 1015.52 1015.58 1015.69 1015.79 1016.21 1016.14 1016.18 1016.35 1016.67 1016.48 1016.85 1017.15 1017.46 1018.00 1018.21 1018.53 1018.85 1018.66 1018.43 1018.43 1018.43 1018.48 1018.80 1019.24
1014.26 1014.41 1014.52 1014.78 1014.69 1014.78 1014.73 1014.80 1014.97 1015.18 1015.18 1015.10 1015.30 1015.44 1015.55 1015.42 1015.49 1015.51 1015.66 1015.61 1015.77 1015.99 1015.86 1015.96 1016.02 1016.17 1016.51 1016.46 1016.69 1016.94 1017.18 1017.40 1017.68 1018.18 1018.45 1018.82 1019.01 1018.70 1018.63 1018.84 1018.80 1019.00 1019.52
1014.14 1014.25 1014.38 1014.46 1014.64 1014.69 1014.73 1014.62 1014.74 1014.96 1015.27 1015.25 1015.36 1015.18 1014.96 1015.03 1015.48 1016.00 1016.13 1016.00 1016.10 1015.75 1015.89 1015.98 1016.12 1016.35 1016.47 1016.69 1016.65 1016.73 1016.93 1017.33 1017.65 1018.17 1018.42 1018.69 1018.97 1018.88 1018.92 1019.16 1019.10 1019.18 1019.29
1014.00 1014.04 1014.08 1014.17 1014.45 1014.54 1014.46 1014.49 1014.59 1014.86 1014.95 1015.15 1014.98 1014.91 1015.01 1015.33 1015.68 1015.96 1016.30 1016.37 1016.18 1016.12 1016.13 1016.14 1015.92 1016.15 1016.29 1016.48 1016.52 1016.60 1016.73 1017.24 1017.78 1018.26 1018.48 1018.72 1019.07 1018.99 1018.98 1019.12 1019.14 1019.34 1019.67
1014.09 1013.99 1013.92 1013.97 1013.91 1014.10 1014.19 1014.29 1014.36 1014.50 1014.61 1014.64 1014.50 1014.64 1015.20 1016.09 1016.26 1016.18 1016.07 1015.85 1015.79 1015.46 1015.82 1016.02 1016.02 1016.13 1016.50 1016.52 1016.66 1016.61 1016.95 1017.38 1017.96 1018.38 1018.60 1018.85 1019.25 1019.06 1019.06 1019.15 1019.21 1019.17 1019.38
1014.21 1014.00 1014.08 1013.85 1013.76 1013.76 1013.97 1014.10 1014.00 1014.06 1013.96 1014.09 1014.22 1014.77 1015.24 1015.28 1015.69 1015.56 1015.53 1015.52 1015.26 1015.40 1015.59 1015.93 1015.95 1016.11 1016.36 1016.69 1016.73 1016.87 1017.08 1017.57 1018.14 1018.68 1018.75 1019.03 1019.35 1019.30 1019.16 1019.34 1019.25 1019.06 1019.06
1014.17 1014.11 1014.06 1013.89 1013.71 1013.60 1013.61 1013.54 1013.59 1013.55 1013.48 1013.41 1013.71 1013.97 1014.22 1014.60 1014.81 1014.68 1014.58 1014.69 1014.91 1015.24 1015.55 1015.67 1015.96 1016.06 1016.37 1016.93 1016.83 1016.83 1017.40 1017.83 1018.22 1018.66 1018.82 1019.00 1019.39 1019.34 1019.36 1019.31 1019.34 1019.16 1019.03
1014.08 1013.99 1013.87 1013.84 1013.60 1013.40 1013.28 1013.25 1013.14 1012.96 1012.91 1012.93 1013.30 1013.44 1013.23 1012.04 1013.29 1013.77 1013.78 1013.85 1014.03 1014.68 1015.35 1015.65 1015.89 1016.03 1016.43 1016.64 1016.86 1017.26 1017.62 1017.76 1018.21 1018.57 1018.88 1019.15 1019.27 1019.37 1019.55 1019.35 1019.19 1019.33 1019.10
1013.83 1013.85 1013.72 1013.51 1013.34 1013.22 1013.01 1012.94 1012.77 1012.47 1012.61 1012.38 1012.16 1012.36 1012.34 1012.63 1012.74 1012.97 1013.07 1013.13 1013.40 1014.15 1015.00 1015.66 1015.93 1016.07 1016.49 1016.84 1017.09 1017.59 1017.71 1017.89 1018.24 1018.67 1018.94 1019.20 1019.48 1019.46 1019.57 1019.27 1019.15 1019.15 1019.21
1013.41 1013.54 1013.46 1013.33 1013.06 1012.82 1012.63 1012.54 1012.50 1012.48 1011.97 1011.76 1011.68 1011.54 1011.63 1011.97 1011.86 1012.40 1012.50 1012.58 1013.11 1013.87 1014.72 1015.65 1015.88 1016.09 1016.59 1016.86 1017.10 1017.53 1017.90 1017.92 1018.27 1018.67 1018.97 1019.25 1019.51 1019.57 1019.79 1019.73 1019.40 1019.38 1019.41
1013.09 1013.05 1013.03 1012.98 1012.83 1012.63 1012.33 1012.08 1011.93 1011.81 1011.61 1011.20 1011.02 1010.99 1011.09 1011.29 1011.62 1011.94 1011.89 1012.25 1013.00 1013.74 1014.53 1015.34 1015.70 1015.99 1016.47 1016.90 1017.27 1017.92 1018.11 1018.32 1018.48 1018.66 1019.00 1019.31 1019.53 1019.72 1019.94 1020.13 1019.98 1019.93 1019.90
1012.77 1012.79 1012.63 1012.50 1012.48 1012.36 1012.18 1011.91 1011.70 1011.36 1011.14 1010.95 1010.65 1010.40 1010.32 1010.61 1011.01 1011.29 1011.34 1012.13 1012.93 1013.80 1014.30 1014.70 1015.35 1015.99 1016.48 1017.11 1017.64 1018.02 1018.35 1018.63 1018.86 1018.83 1019.09 1019.32 1019.67 1019.85 1020.09 1020.14 1020.38 1020.44 1020.48
1012.31 1012.35 1012.46 1012.48 1012.34 1012.21 1011.92 1011.56 1011.37 1011.19 1010.95 1010.63 1010.25 1009.99 1009.79 1010.06 1010.52 1010.84 1010.92 1011.80 1012.84 1013.80 1014.38 1014.76 1015.30 1015.96 1016.17 1017.20 1017.49 1017.94 1018.45 1018.68 1019.03 1019.10 1019.11 1019.41 1019.69 1019.94 1020.08 1020.20 1020.33 1020.42 1020.65
1012.24 1012.37 1012.37 1012.40 1012.41 1012.02 1011.66 1011.56 1011.31 1011.03 1010.78 1010.37 1010.01 1009.74 1009.49 1009.53 1010.02 1010.43 1011.03 1011.93 1012.74 1013.49 1014.34 1014.80 1015.38 1016.01 1016.26 1017.00 1017.18 1017.76 1018.26 1018.66 1019.07 1019.15 1019.42 1019.70 1019.83 1020.02 1020.22 1020.45 1020.46 1020.57 1020.82
1012.31 1012.24 1012.34 1012.35 1012.22 1011.95 1011.84 1011.45 1011.43 1011.17 1010.84 1010.53 1009.99 1009.73 1009.79 1009.77 1010.12 1010.68 1010.96 1011.45 1012.11 1013.21 1014.15 1014.73 1015.30 1015.76 1016.19 1016.49 1017.11 1017.54 1018.08 1018.63 1018.87 1018.96 1019.26 1019.67 1019.86 1020.17 1020.25 1020.45 1020.58 1020.74 1020.82
1012.27 1012.38 1012.45 1012.55 1012.47 1012.73 1012.37 1011.83 1011.60 1011.36 1011.02 1010.60 1010.12 1010.08 1010.11 1010.27 1010.44 1010.86 1011.31 1011.83 1012.48 1013.15 1013.15 1013.89 1014.68 1015.41 1015.81 1016.14 1016.67 1017.22 1017.73 1018.15 1018.48 1018.81 1019.12 1019.43 1019.81 1019.96 1020.07 1020.19 1020.47 1020.62 1020.75
1012.19 1012.50 1012.76 1012.94 1013.18 1013.20 1012.59 1011.96 1011.65 1011.44 1011.32 1011.03 1010.81 1010.67 1010.70 1010.89 1010.98 1011.19 1011.71 1012.25 1012.82 1013.40 1013.79 1013.99 1014.29 1014.72 1015.29 1015.89 1016.29 1016.59 1017.20 1017.92 1018.43 1018.71 1018.94 1019.18 1019.48 1019.61 1019.69 1019.93 1020.29 1020.58 1020.68
1012.40 1012.78 1013.20 1013.39 1013.57 1013.74 1013.26 1012.48 1012.17 1011.77 1011.65 1011.41 1011.21 1011.17 1011.32 1011.54 1011.71 1011.72 1011.85 1012.50 1013.15 1013.56 1014.00 1014.12 1014.52 1014.78 1015.27 1015.73 1016.15 1016.90 1017.14 1017.76 1018.23 1018.48 1018.73 1018.89 1019.18 1019.30 1019.56 1019.83 1019.92 1020.31 1020.59
1012.42 1012.92 1013.37 1013.67 1013.87 1013.91 1013.68 1013.21 1012.81 1012.58 1012.22 1011.93 1011.56 1011.65 1011.76 1011.92 1012.13 1012.23 1012.51 1012.92 1013.43 1013.84 1014.22 1014.58 1015.08 1015.10 1015.33 1015.91 1016.27 1016.51 1016.89 1017.27 1017.75 1018.09 1018.20 1018.59 1018.81 1019.11 1019.46 1019.65 1019.82 1020.09 1020.40
Thickness
5787 5788 5789 5790 5790 5790 5789 5788 5786 5783 5780 5781 5780 5775 5772 5769 5766 5758 5751 5746 5744 5740 5738 5732 5728 5728 5726 5725 5723 5726 5728 5725 5719 5714 5714 5713 5711 5708 5706 5709 5710 5712 5708
5790 5791 5790 5789 5789 5790 5790 5789 5787 5785 5785 5782 5778 5775 5773 5770 5766 5760 5753 5749 5747 5742 5735 5732 5728 5722 5720 5719 5718 5715 5716 5717 5715 5710 5707 5708 5708 5703 5702 5700 5705 5708 5704
5791 5791 5790 5789 5792 5792 5793 5792 5791 5790 5787 5781 5778 5776 5773 5771 5769 5763 5756 5750 5744 5740 5734 5729 5726 5721 5716 5712 5710 5715 5714 5708 5707 5705 5701 5700 5700 5695 5695 5692 5699 5701 5701
5794 5793 5794 5795 5796 5795 5793 5792 5791 5789 5785 5781 5778 5778 5777 5774 5767 5759 5755 5755 5744 5738 5731 5726 5721 5718 5713 5709 5706 5704 5705 5701 5695 5694 5692 5692 5693 5688 5687 5689 5697 5699 5693
5796 5796 5794 5795 5795 5792 5790 5790 5789 5788 5784 5779 5778 5776 5773 5770 5763 5754 5750 5746 5741 5732 5727 5721 5715 5712 5706 5702 5702 5695 5691 5687 5684 5681 5680 5680 5681 5686 5689 5688 5694 5696 5687
5797 5796 5794 5793 5791 5791 5790 5789 5788 5787 5783 5778 5775 5771 5769 5764 5759 5752 5745 5738 5734 5731 5723 5716 5712 5705 5701 5698 5691 5687 5681 5677 5672 5669 5666 5667 5670 5674 5679 5682 5684 5683 5684
5798 5796 5794 5792 5789 5789 5788 5788 5786 5782 5779 5776 5771 5767 5761 5757 5752 5747 5741 5736 5729 5724 5716 5709 5705 5700 5694 5686 5683 5676 5671 5664 5660 5658 5656 5654 5656 5661 5669 5674 5679 5681 5684
5798 5797 5795 5793 5791 5788 5788 5787 5782 5774 5771 5770 5761 5754 5749 5749 5748 5741 5739 5730 5724 5714 5710 5702 5698 5696 5690 5680 5676 5669 5663 5655 5650 5648 5648 5645 5648 5653 5660 5667 5673 5680 5685
5798 5796 5795 5792 5791 5788 5785 5781 5776 5769 5763 5764 5758 5749 5739 5737 5736 5734 5728 5723 5719 5710 5706 5698 5696 5689 5682 5677 5668 5659 5653 5647 5644 5641 5641 5639 5638 5644 5649 5656 5663 5672 5677
5799 5796 5793 5790 5787 5784 5780 5779 5775 5769 5762 5757 5753 5752 5751 5745 5731 5723 5719 5719 5713 5708 5701 5695 5688 5681 5675 5666 5661 5657 5648 5641 5637 5634 5633 5633 5632 5639 5642 5646 5654 5663 5667
5798 5795 5793 5790 5785 5781 5780 5778 5773 5767 5764 5757 5755 5752 5746 5737 5728 5720 5709 5707 5705 5698 5696 5689 5686 5678 5671 5661 5656 5649 5641 5632 5628 5626 5626 5627 5626 5635 5638 5641 5648 5656 5661
5794 5792 5790 5788 5786 5784 5782 5778 5774 5768 5763 5760 5756 5748 5735 5721 5718 5716 5711 5708 5702 5702 5693 5684 5681 5674 5661 5654 5644 5637 5627 5622 5618 5618 5619 5620 5620 5628 5633 5638 5643 5653 5663
5790 5790 5787 5787 5786 5785 5782 5779 5776 5771 5768 5763 5753 5741 5734 5729 5722 5721 5715 5709 5706 5701 5691 5682 5676 5666 5654 5643 5633 5624 5618 5612 5607 5608 5612 5616 5616 5624 5629 5634 5640 5651 5664
5789 5789 5787 5786 5785 5784 5783 5782 5777 5774 5771 5766 5756 5748 5741 5732 5729 5723 5723 5716 5706 5700 5689 5681 5670 5660 5647 5632 5625 5617 5608 5605 5605 5604 5607 5612 5614 5621 5626 5632 5638 5650 5664
5789 5788 5787 5785 5785 5786 5784 5782 5779 5777 5775 5769 5759 5755 5747 5742 5741 5734 5730 5725 5717 5703 5688 5678 5666 5655 5641 5629 5616 5610 5605 5606 5604 5603 5604 5607 5613 5619 5621 5629 5639 5648 5664
5790 5788 5786 5786 5785 5783 5783 5781 5779 5780 5774 5771 5769 5764 5758 5751 5744 5735 5735 5731 5722 5709 5690 5676 5663 5652 5636 5622 5613 5606 5603 5601 5602 5600 5602 5605 5609 5615 5619 5630 5641 5650 5661
5790 5787 5785 5784 5784 5783 5784 5782 5779 5777 5777 5774 5772 5768 5762 5756 5745 5745 5738 5733 5723 5711 5692 5675 5662 5651 5633 5620 5609 5602 5597 5595 5598 5598 5601 5605 5609 5613 5616 5626 5640 5650 5661
5791 5790 5788 5786 5784 5783 5785 5784 5782 5780 5777 5775 5774 5770 5765 5759 5752 5746 5744 5733 5724 5711 5694 5677 5664 5653 5637 5618 5605 5595 5591 5591 5596 5598 5601 5604 5609 5613 5618 5626 5638 5649 5660
5791 5789 5789 5787 5785 5784 5783 5784 5782 5781 5780 5778 5776 5774 5771 5764 5757 5752 5747 5735 5723 5709 5697 5686 5669 5656 5642 5622 5608 5599 5594 5593 5595 5599 5602 5605 5608 5615 5621 5630 5637 5648 5657
5792 5789 5787 5785 5783 5783 5782 5783 5781 5779 5777 5777 5778 5778 5776 5769 5760 5754 5750 5738 5724 5709 5698 5688 5674 5660 5651 5631 5620 5611 5602 5600 5600 5602 5606 5608 5612 5618 5626 5634 5642 5652 5658
5789 5787 5784 5782 5779 5781 5782 5780 5778 5776 5775 5775 5776 5776 5775 5772 5764 5758 5748 5735 5724 5712 5700 5690 5676 5664 5656 5642 5634 5625 5616 5610 5608 5610 5612 5614 5618 5624 5631 5637 5645 5654 5662
5784 5784 5782 5780 5778 5779 5777 5777 5774 5772 5772 5771 5771 5771 5769 5767 5760 5752 5748 5740 5730 5714 5700 5691 5681 5671 5660 5654 5645 5637 5629 5621 5622 5623 5625 5626 5628 5633 5639 5645 5652 5660 5666
5780 5778 5776 5775 5773 5768 5768 5770 5770 5770 5768 5768 5769 5764 5761 5759 5755 5749 5742 5736 5726 5716 5711 5699 5689 5677 5669 5663 5655 5646 5641 5636 5637 5636 5636 5639 5640 5644 5649 5655 5661 5665 5670
5776 5772 5769 5767 5763 5760 5763 5765 5765 5766 5763 5763 5761 5758 5754 5750 5747 5743 5736 5730 5723 5714 5707 5700 5695 5688 5680 5670 5666 5663 5655 5650 5646 5647 5648 5651 5651 5654 5658 5663 5666 5668 5672
5768 5765 5760 5758 5755 5752 5753 5757 5759 5759 5756 5755 5755 5752 5746 5740 5736 5735 5733 5723 5717 5711 5705 5700 5694 5691 5684 5677 5672 5666 5664 5659 5657 5656 5656 5659 5660 5662 5665 5668 5672 5674 5676
5763 5759 5753 5750 5747 5746 5744 5746 5747 5747 5746 5745 5748 5744 5740 5736 5730 5728 5725 5719 5713 5707 5702 5697 5693 5689 5685 5680 5676 5674 5671 5668 5666 5665 5666 5666 5667 5669 5670 5672 5675 5677 5679